Tracking 19419 objects as of 17-Dec-2018
HD Live streaming from Space Station
objects crossing your sky now

IRIDIUM 160

Track IRIDIUM 160 now!
10-day predictions
IRIDIUM 160 is classified as:


NORAD ID: 43569
Int'l Code: 2018-061A
Perigee: 783.1 km
Apogee: 786.5 km
Inclination: 86.4 °
Period: 100.4 minutes
Semi major axis: 7155 km
RCS: Unknown
Launch date: July 25, 2018
Source: United States (US)
Launch site: AIR FORCE WESTERN TEST RANGE (AFWTR)
aabbcc
Your satellite tracking list
Your tracking list is empty




NASA's NSSDC Master Catalog

Two Line Element Set (TLE):
1 43569U 18061A   18350.94831409  .00000078  00000-0  20791-4 0  9996
2 43569  86.3974 121.5010 0002335  95.0525 265.0937 14.34218497 20754
Source of the keplerian elements: AFSPC